Tracking 31027 objects as of 19-Jul-2025
HD Live streaming from Space Station
objects crossing your sky now

COSMOS 1867 COOLANT

Track COSMOS 1867 COOLANT now!
10-day predictions


NORAD ID: 39645
Int'l Code: 1987-060N
Perigee: 776.6 km
Apogee: 797.9 km
Inclination: 65.0 °
Period: 100.5 minutes
Semi major axis: 7158 km
RCS: Unknown
Launch date: July 10, 1987
Source: Commonwealth of Independent States (former USSR) (CIS)
Launch site: TYURATAM MISSILE AND SPACE COMPLEX (TTMTR)

Note: This is SATELLITE DEBRIS
Your satellite tracking list
Your tracking list is empty




NASA's NSSDC Master Catalog

Two Line Element Set (TLE):
1 39645U 87060N   25198.54592338  .00000100  00000-0  72301-4 0  9990
2 39645  65.0093 233.2812 0014881 260.1592  99.7813 14.33497090589582
Source of the keplerian elements: AFSPC